�N����,����,�~����,�C��,���x,�C��,����,���ϕ���,�ő�u�ԕ���,�ő厞����,���˗�,�I�_���x,�n�����x,�ő啗���N��,DTYPE
"23/11/07","00:10",0.2,19.6,96.7,1004.1,308.7,0.6,1.0,316.0,0.00,19.1,18.6,"00:00:32",1
"23/11/07","00:20",0.0,19.6,96.7,1004.1,323.1,0.5,1.2,345.2,0.00,19.1,18.6,"00:16:00",1
"23/11/07","00:30",0.0,19.5,96.7,1003.6,258.7,0.5,1.0,337.5,0.00,19.0,18.4,"00:27:20",1
"23/11/07","00:40",0.2,19.6,96.8,1003.6,313.9,0.5,1.1,261.1,0.00,19.1,18.7,"00:30:08",1
"23/11/07","00:50",0.2,19.7,96.8,1003.6,288.6,0.8,2.5,239.2,0.00,19.2,18.4,"00:48:40",1
"23/11/07","01:00",0.4,19.7,96.8,1003.4,285.7,0.5,1.2,355.8,0.00,19.2,18.4,"00:50:16",1
"23/11/07","01:10",2.2,19.7,96.9,1003.4,284.0,0.6,1.0,354.7,0.00,19.2,18.4,"01:08:58",1
"23/11/07","01:20",1.0,19.7,96.9,1004.1,284.1,0.7,1.7,4.3,0.00,19.2,18.6,"01:10:32",1
"23/11/07","01:30",0.6,19.7,96.9,1003.8,327.0,0.8,1.8,337.6,0.00,19.2,18.5,"01:26:16",1
"23/11/07","01:40",2.2,19.8,97.0,1003.8,294.1,0.6,1.4,240.1,0.00,19.4,18.5,"01:39:38",1
"23/11/07","01:50",2.2,19.8,97.0,1003.4,251.5,1.0,2.0,243.0,0.00,19.4,18.6,"01:48:08",1
"23/11/07","02:00",0.4,20.2,96.9,1003.1,271.1,0.8,2.5,323.4,0.00,19.7,18.5,"01:51:36",1
"23/11/07","02:10",0.2,20.2,97.0,1003.6,280.5,1.6,4.0,344.3,0.00,19.7,18.6,"02:09:28",1
"23/11/07","02:20",0.0,20.0,97.0,1004.1,286.4,2.2,4.9,235.2,0.00,19.5,18.7,"02:12:16",1
"23/11/07","02:30",0.0,20.1,96.9,1003.6,268.9,1.7,5.0,314.7,0.00,19.6,18.6,"02:20:08",1
"23/11/07","02:40",0.0,19.9,96.6,1004.1,277.0,2.5,6.2,264.9,0.00,19.4,18.3,"02:34:48",1
"23/11/07","02:50",0.0,19.8,96.4,1003.6,309.5,2.2,4.9,333.2,0.00,19.3,18.5,"02:45:04",1
"23/11/07","03:00",0.0,19.8,96.2,1004.1,297.3,2.3,5.2,327.2,0.00,19.2,18.6,"02:50:08",1
"23/11/07","03:10",0.0,19.7,95.9,1003.8,293.5,2.0,5.1,325.2,0.00,19.1,18.6,"03:02:08",1
"23/11/07","03:20",0.0,19.4,95.2,1003.6,292.3,2.6,4.8,318.2,0.00,18.7,18.7,"03:19:12",1
"23/11/07","03:30",0.0,19.4,94.7,1003.8,304.2,2.3,5.8,335.0,0.00,18.6,18.5,"03:29:52",1
"23/11/07","03:40",0.0,19.5,94.2,1003.8,304.2,2.7,5.7,330.5,0.00,18.6,18.6,"03:32:08",1
"23/11/07","03:50",0.0,19.6,93.6,1004.1,312.8,2.3,4.5,280.3,0.00,18.6,18.5,"03:42:48",1
"23/11/07","04:00",0.0,19.6,92.8,1004.1,306.3,2.0,4.0,313.3,0.00,18.4,18.7,"03:55:12",1
"23/11/07","04:10",0.0,19.6,91.9,1003.6,320.9,2.5,4.0,335.0,0.00,18.3,18.4,"04:09:28",1
"23/11/07","04:20",0.0,19.6,90.9,1003.8,307.9,2.1,4.5,331.2,0.00,18.1,18.5,"04:10:48",1
"23/11/07","04:30",0.0,19.7,90.0,1004.5,311.5,2.1,3.9,307.7,0.00,18.1,18.5,"04:22:08",1
"23/11/07","04:40",0.0,19.8,88.9,1004.5,306.6,2.5,6.0,329.5,0.00,18.0,18.6,"04:35:20",1
"23/11/07","04:50",0.0,19.8,87.7,1004.8,310.9,2.5,5.2,306.9,0.00,17.7,18.7,"04:41:52",1
"23/11/07","05:00",0.0,20.0,86.1,1004.8,306.8,2.8,5.5,323.0,0.00,17.6,18.5,"04:54:48",1
"23/11/07","05:10",0.0,19.7,84.7,1005.2,311.2,2.2,6.6,325.2,0.00,17.1,18.6,"05:09:12",1
"23/11/07","05:20",0.0,19.7,82.7,1005.2,305.7,2.1,5.0,335.5,0.00,16.7,18.5,"05:17:36",1
"23/11/07","05:30",0.0,19.9,80.6,1005.7,317.2,2.8,6.5,345.8,0.00,16.5,18.5,"05:20:24",1
"23/11/07","05:40",0.0,20.0,78.5,1005.5,314.3,3.1,5.6,324.4,0.00,16.2,18.4,"05:39:28",1
"23/11/07","05:50",0.0,20.0,76.4,1005.7,308.1,3.2,5.8,330.3,0.00,15.8,18.6,"05:49:44",1
"23/11/07","06:00",0.0,20.1,74.6,1005.7,315.2,3.6,6.8,293.6,0.00,15.5,18.4,"05:52:24",1
"23/11/07","06:10",0.0,20.0,73.4,1005.7,313.7,3.9,7.5,352.7,0.00,15.1,18.5,"06:07:12",1
"23/11/07","06:20",0.0,19.8,71.8,1006.2,318.1,4.5,8.9,348.1,0.00,14.6,18.3,"06:18:34",1
"23/11/07","06:30",0.0,19.6,70.9,1006.0,317.6,3.6,7.8,342.5,0.00,14.2,18.4,"06:28:00",1
"23/11/07","06:40",0.0,19.6,70.3,1006.4,320.2,4.0,8.5,335.7,0.00,14.1,18.2,"06:31:36",1
"23/11/07","06:50",0.0,19.3,70.2,1006.7,308.8,2.6,6.0,338.6,0.00,13.8,18.3,"06:41:44",1
"23/11/07","07:00",0.0,19.4,66.4,1006.7,317.0,3.6,8.5,334.4,0.00,13.0,18.3,"06:51:52",1
"23/11/07","07:10",0.0,19.4,64.4,1006.7,305.7,2.8,5.5,307.2,0.00,12.6,18.3,"07:04:56",1
"23/11/07","07:20",0.0,19.3,61.6,1007.1,305.1,3.0,5.6,275.2,0.01,11.8,18.2,"07:18:16",1
"23/11/07","07:30",0.0,19.2,60.8,1006.7,291.9,2.7,5.1,255.4,0.02,11.5,18.1,"07:22:00",1
"23/11/07","07:40",0.0,19.1,61.5,1007.4,316.1,3.0,5.6,321.2,0.02,11.6,18.2,"07:36:08",1
"23/11/07","07:50",0.0,19.0,63.3,1007.1,308.7,2.7,5.6,337.8,0.03,11.9,18.2,"07:41:04",1
"23/11/07","08:00",0.0,18.8,64.7,1007.6,309.8,3.0,5.7,336.0,0.04,12.1,18.1,"07:56:48",1
"23/11/07","08:10",0.0,18.7,66.0,1007.8,311.6,2.1,4.0,288.1,0.03,12.3,17.9,"08:00:48",1
"23/11/07","08:20",0.0,18.6,67.4,1008.1,309.5,2.0,5.1,256.1,0.03,12.5,18.1,"08:10:24",1
"23/11/07","08:30",0.0,18.4,68.2,1008.1,317.5,1.8,5.1,326.0,0.03,12.5,18.2,"08:28:32",1
"23/11/07","08:40",0.0,18.5,68.6,1008.6,309.3,1.7,3.4,346.6,0.04,12.7,18.0,"08:32:24",1
"23/11/07","08:50",0.0,18.5,68.5,1008.8,283.9,1.5,2.9,315.1,0.04,12.6,17.9,"08:40:56",1
"23/11/07","09:00",0.0,18.3,68.9,1009.3,274.2,1.1,2.6,267.5,0.03,12.5,17.8,"08:50:32",1
"23/11/07","09:10",0.0,18.0,65.5,1009.3,288.9,1.7,4.4,324.7,0.04,11.5,17.7,"09:05:36",1
"23/11/07","09:20",0.0,18.5,63.6,1009.5,298.4,1.7,5.0,340.7,0.11,11.5,17.9,"09:13:12",1
"23/11/07","09:30",0.0,19.1,60.4,1009.3,258.8,1.8,5.9,335.1,0.21,11.3,18.1,"09:25:12",1
"23/11/07","09:40",0.0,19.5,57.3,1009.5,231.5,1.7,4.9,204.4,0.25,10.9,18.1,"09:38:40",1
"23/11/07","09:50",0.0,19.0,58.4,1009.7,230.3,2.1,4.4,185.2,0.13,10.7,18.0,"09:41:28",1
"23/11/07","10:00",0.0,19.5,58.3,1009.5,253.7,2.3,5.7,238.5,0.26,11.1,18.0,"09:59:20",1
"23/11/07","10:10",0.0,20.0,57.6,1009.7,244.6,2.2,4.3,227.7,0.32,11.4,18.0,"10:00:32",1
"23/11/07","10:20",0.0,19.8,57.3,1009.5,240.6,2.8,6.0,233.8,0.33,11.2,17.9,"10:11:52",1
"23/11/07","10:30",0.0,20.3,56.9,1009.3,237.2,2.7,5.1,235.6,0.37,11.5,18.1,"10:28:40",1
"23/11/07","10:40",0.0,20.1,58.0,1009.3,242.6,3.1,6.4,238.8,0.27,11.6,18.0,"10:38:00",1
"23/11/07","10:50",0.0,20.6,57.0,1009.5,260.6,2.5,5.1,220.6,0.36,11.8,17.9,"10:40:24",1
"23/11/07","11:00",0.0,21.4,55.6,1008.8,295.7,2.0,4.9,318.9,0.43,12.2,18.1,"10:54:16",1
"23/11/07","11:10",0.0,21.3,56.6,1009.0,278.6,2.5,6.6,241.2,0.39,12.4,18.2,"11:00:32",1
"23/11/07","11:20",0.0,21.5,55.6,1009.0,293.3,2.1,6.7,328.8,0.43,12.3,18.2,"11:10:02",1
"23/11/07","11:30",0.0,21.1,56.4,1008.6,329.2,2.8,5.4,350.7,0.40,12.1,17.9,"11:20:24",1
"23/11/07","11:40",0.0,21.4,57.5,1008.8,294.2,2.0,4.5,338.6,0.40,12.7,18.2,"11:32:56",1
"23/11/07","11:50",0.0,21.5,56.5,1008.3,301.3,2.1,4.7,334.4,0.40,12.5,18.4,"11:42:16",1
"23/11/07","12:00",0.0,21.2,55.9,1008.6,291.1,1.8,4.0,239.1,0.33,12.1,18.4,"11:59:04",1
"23/11/07","12:10",0.0,21.5,55.7,1008.1,249.5,1.8,4.3,244.4,0.42,12.3,18.6,"12:04:40",1
"23/11/07","12:20",0.0,22.0,56.2,1007.8,240.3,1.6,4.1,228.8,0.39,12.9,18.5,"12:18:24",1
"23/11/07","12:30",0.0,21.9,54.0,1007.8,238.8,2.6,4.9,223.5,0.41,12.2,18.3,"12:25:04",1
"23/11/07","12:40",0.0,22.1,52.4,1008.1,314.2,2.1,4.0,330.2,0.42,11.9,18.4,"12:36:16",1
"23/11/07","12:50",0.0,22.5,53.2,1007.8,315.7,1.8,4.8,358.0,0.42,12.5,18.6,"12:42:00",1
"23/11/07","13:00",0.0,22.5,48.9,1007.6,338.9,1.6,4.0,337.8,0.36,11.3,18.7,"12:59:04",1
"23/11/07","13:10",0.0,22.0,50.9,1007.4,322.7,1.8,4.7,349.1,0.29,11.4,18.7,"13:00:56",1
"23/11/07","13:20",0.0,22.4,49.6,1007.4,277.2,1.7,3.1,233.6,0.34,11.4,18.9,"13:14:56",1
"23/11/07","13:30",0.0,22.4,50.8,1007.1,272.8,2.0,3.9,210.4,0.35,11.8,18.8,"13:29:28",1
"23/11/07","13:40",0.0,22.3,50.5,1006.7,229.7,1.8,5.6,239.1,0.28,11.6,19.0,"13:37:36",1
"23/11/07","13:50",0.0,22.4,47.1,1007.1,312.7,2.1,5.7,343.8,0.30,10.6,19.1,"13:47:12",1
"23/11/07","14:00",0.0,22.2,48.1,1007.1,328.2,2.2,4.9,316.8,0.28,10.7,19.2,"13:52:48",1
"23/11/07","14:10",0.0,22.0,48.1,1007.4,329.7,2.7,4.8,327.9,0.25,10.6,18.8,"14:01:44",1
"23/11/07","14:20",0.0,22.5,48.7,1007.1,341.3,2.0,3.9,319.5,0.23,11.2,19.1,"14:14:48",1
"23/11/07","14:30",0.0,22.8,45.6,1006.9,297.2,1.5,4.1,333.4,0.22,10.5,18.9,"14:20:24",1
"23/11/07","14:40",0.0,23.0,44.9,1007.1,309.6,1.2,2.9,356.6,0.21,10.4,19.0,"14:37:12",1
"23/11/07","14:50",0.0,23.0,44.5,1007.1,333.0,1.6,4.5,339.6,0.21,10.3,19.0,"14:48:24",1
"23/11/07","15:00",0.0,22.5,45.0,1007.4,332.1,2.2,5.1,328.9,0.18,10.0,19.0,"14:52:56",1
"23/11/07","15:10",0.0,21.9,47.1,1007.6,331.8,2.8,4.7,351.0,0.14,10.2,19.2,"15:08:48",1
"23/11/07","15:20",0.0,21.9,47.6,1007.8,324.3,2.3,5.1,340.6,0.11,10.3,19.1,"15:18:16",1
"23/11/07","15:30",0.0,21.4,47.5,1008.1,333.7,2.3,5.7,338.5,0.06,9.8,19.1,"15:20:40",1
"23/11/07","15:40",0.0,21.5,47.0,1008.1,298.0,1.7,3.5,326.7,0.08,9.8,19.4,"15:38:40",1
"23/11/07","15:50",0.0,21.6,49.2,1008.3,319.7,2.5,4.9,325.1,0.08,10.5,19.2,"15:49:52",1
"23/11/07","16:00",0.0,20.9,50.2,1008.6,349.2,2.8,6.3,33.6,0.05,10.2,19.0,"15:59:04",1
"23/11/07","16:10",0.0,20.3,52.2,1008.8,1.2,2.6,4.2,352.8,0.02,10.2,19.1,"16:02:08",1
"23/11/07","16:20",0.0,19.8,54.8,1009.0,348.7,2.2,4.8,344.1,0.01,10.5,19.1,"16:16:48",1
"23/11/07","16:30",0.0,19.2,56.7,1009.5,348.4,2.3,4.4,348.4,0.00,10.4,19.2,"16:29:04",1
"23/11/07","16:40",0.0,18.6,58.3,1009.5,346.6,2.0,4.0,333.3,0.00,10.3,19.1,"16:32:56",1
"23/11/07","16:50",0.0,18.2,59.7,1010.0,343.4,2.1,4.0,342.3,0.00,10.3,19.0,"16:44:56",1
"23/11/07","17:00",0.0,17.6,62.5,1010.0,332.7,1.7,2.8,343.3,0.00,10.4,19.0,"16:51:28",1
"23/11/07","17:10",0.0,17.0,65.0,1010.2,326.1,1.3,2.4,344.9,0.00,10.4,18.9,"17:09:12",1
"23/11/07","17:20",0.0,16.4,67.1,1010.4,326.9,1.7,3.7,338.3,0.00,10.3,19.0,"17:18:50",1
"23/11/07","17:30",0.0,16.3,68.4,1010.4,325.2,2.1,3.5,329.4,0.00,10.5,18.8,"17:28:00",1
"23/11/07","17:40",0.0,16.0,68.9,1010.7,331.9,2.2,4.0,343.0,0.00,10.3,18.8,"17:36:24",1
"23/11/07","17:50",0.0,16.2,68.0,1011.2,332.3,2.2,4.1,326.1,0.00,10.3,18.7,"17:41:36",1
"23/11/07","18:00",0.0,16.4,67.3,1011.9,334.9,2.8,4.7,337.3,0.00,10.4,18.6,"17:54:50",1
"23/11/07","18:10",0.0,16.2,67.4,1011.9,332.2,2.3,4.2,328.0,0.00,10.2,18.5,"18:00:26",1
"23/11/07","18:20",0.0,16.2,67.4,1012.1,335.4,2.7,4.9,339.1,0.00,10.2,18.5,"18:12:38",1
"23/11/07","18:30",0.0,16.1,67.5,1012.1,326.9,2.2,4.3,344.7,0.00,10.1,18.5,"18:27:54",1
"23/11/07","18:40",0.0,15.9,67.8,1012.3,315.2,1.7,3.7,317.0,0.00,10.0,18.4,"18:37:54",1
"23/11/07","18:50",0.0,15.6,68.5,1012.8,314.3,1.5,2.7,325.5,0.00,9.9,18.4,"18:48:18",1
"23/11/07","19:00",0.0,15.4,68.9,1012.6,322.1,1.6,3.6,343.2,0.00,9.8,18.4,"18:59:16",1
"23/11/07","19:10",0.0,15.7,68.5,1012.8,321.5,1.7,3.1,313.8,0.00,10.0,18.4,"19:00:16",1
"23/11/07","19:20",0.0,15.0,70.0,1012.6,313.5,1.2,2.1,303.4,0.00,9.6,18.2,"19:11:24",1
"23/11/07","19:30",0.0,14.4,71.4,1013.0,295.5,1.0,1.7,329.3,0.00,9.3,18.2,"19:27:12",1
"23/11/07","19:40",0.0,13.8,72.9,1013.0,286.6,1.1,1.6,302.0,0.00,9.1,18.2,"19:30:24",1
"23/11/07","19:50",0.0,13.1,73.7,1013.0,299.6,1.3,1.7,312.3,0.00,8.6,18.2,"19:46:24",1
"23/11/07","20:00",0.0,13.1,75.8,1013.0,312.0,1.3,1.9,328.9,0.00,9.0,18.1,"19:53:24",1
"23/11/07","20:10",0.0,12.5,77.9,1013.3,301.9,1.5,2.5,322.3,0.00,8.8,18.2,"20:08:22",1
"23/11/07","20:20",0.0,12.4,80.4,1013.3,318.5,1.6,1.9,307.4,0.00,9.2,18.1,"20:14:10",1
"23/11/07","20:30",0.0,12.4,82.0,1013.5,310.8,1.8,2.4,305.3,0.00,9.5,17.8,"20:21:00",1
"23/11/07","20:40",0.0,12.5,82.7,1013.3,324.2,1.6,2.0,337.6,0.00,9.7,17.9,"20:30:20",1
"23/11/07","20:50",0.0,12.7,82.7,1013.5,314.5,1.2,1.7,329.7,0.00,9.9,18.0,"20:41:48",1
"23/11/07","21:00",0.0,12.3,83.1,1014.0,317.5,1.8,2.4,350.3,0.00,9.6,17.7,"20:52:22",1
"23/11/07","21:10",0.0,11.8,83.4,1014.0,308.0,1.2,2.0,322.1,0.00,9.1,17.7,"21:00:32",1
"23/11/07","21:20",0.0,11.5,84.1,1013.8,306.4,1.0,2.1,330.8,0.00,9.0,17.6,"21:18:34",1
"23/11/07","21:30",0.0,11.2,85.0,1014.2,309.1,1.6,2.8,318.8,0.00,8.8,17.6,"21:27:38",1
"23/11/07","21:40",0.0,11.0,86.2,1014.0,306.3,1.5,2.8,318.7,0.00,8.8,17.5,"21:30:32",1
"23/11/07","21:50",0.0,11.0,87.0,1014.5,311.4,1.7,2.7,307.6,0.00,9.0,17.4,"21:47:02",1
"23/11/07","22:00",0.0,10.8,87.8,1014.2,311.1,1.3,2.2,319.9,0.00,8.9,17.4,"21:51:52",1
"23/11/07","22:10",0.0,10.5,88.4,1014.0,307.5,1.0,2.1,310.5,0.00,8.7,17.3,"22:00:02",1
"23/11/07","22:20",0.0,10.4,89.2,1014.0,297.1,1.3,2.6,320.7,0.00,8.7,17.3,"22:10:40",1
"23/11/07","22:30",0.0,10.2,89.6,1014.2,301.5,1.3,2.1,311.6,0.00,8.6,17.2,"22:27:04",1
"23/11/07","22:40",0.0,10.0,90.2,1014.2,294.3,0.7,1.9,322.3,0.00,8.5,17.1,"22:36:56",1
"23/11/07","22:50",0.0,10.4,90.7,1014.2,322.1,1.1,2.4,330.2,0.00,9.0,17.2,"22:47:20",1
"23/11/07","23:00",0.0,10.7,91.0,1014.5,319.3,1.7,2.7,328.2,0.00,9.3,17.3,"22:53:52",1
"23/11/07","23:10",0.0,10.6,91.4,1014.5,288.0,1.0,2.0,268.5,0.00,9.3,17.2,"23:09:20",1
"23/11/07","23:20",0.0,10.6,91.8,1014.0,304.6,1.2,1.6,293.7,0.00,9.4,16.9,"23:10:08",1
"23/11/07","23:30",0.0,10.8,91.9,1014.0,301.0,1.6,2.4,319.9,0.00,9.6,17.0,"23:22:56",1
"23/11/07","23:40",0.0,10.9,92.2,1014.2,308.8,1.6,2.1,316.0,0.00,9.7,16.7,"23:31:48",1
"23/11/07","23:50",0.0,10.9,92.3,1014.0,306.7,1.3,2.0,343.2,0.00,9.7,16.7,"23:49:06",1
"23/11/07","24:00",0.0,10.9,92.4,1014.2,312.4,1.6,2.2,312.5,0.00,9.8,16.7,"23:56:12",1
